星链-30441 (STARLINK-30441 )

导读 | 星芒AI

STARLINK-30441 是 SpaceX Starlink 卫星互联网项目中的一颗低轨卫星,属于第三代星链卫星(v1.5)。它于2023年发射,运行在约550公里高的近地轨道,旨在为全球用户提供高速、低延迟的互联网服务。该卫星采用先进推进系统和激光通信技术,支持星间链路,提升网络效率与覆盖范围。作为星链计划的重要组成部分,STARLINK-30441 有助于扩展 SpaceX 在全球宽带市场的影响力,并推动偏远地区网络接入的普及。

基本信息
目录编号:
57869
目录名称:
STARLINK-30441
国际标识:
2023-144F
轨道中心:
EARTH
卫星名称:
星链-30441
卫星全名:
星链-30441 (STARLINK-30441 )
卫星状态:
在轨 (已飞行825 天)
发射日期:
2023-09-16 UTC
国别 :
美国 (US)
星等 :
--
轨道信息
数据来源 国际轨道数据
星历时间: 2025-12-18T18:39:03+0800
19小时前
查看轨道信息
半长轴: 6937.321km
偏心率: 0.0001046
轨道倾角: 43.005°
近地点辐角 282.443°
升交点赤经 9.369°
平近点角 77.630°
近地点: 558.46km
远地点: 559.912km
周期: 95.840分钟
每日圈数: 15.025022
详细信息
固有亮度:
5
最大亮度:
0.3
卫星平台:
Starlink v2.0 mini
覆盖范围:
全球
运营商:
太空探索技术公司
运营商所在国:
美国
制造商(研发单位):
太空探索技术公司
制造商所在国:
美国
使用方式:
暂无
卫星简介
星链(Starlink)计划是由太空探索技术公司(SpaceX)提出的一个巨型低轨卫星互联网星座项目,计划在2019年至2024年间在太空搭建由约1.2万颗卫星组成的“星链”网络,其中1584颗将部署在地球上空550千米处的近地轨道,并从2020年开始工作。该卫星仍在工作。
2D轨道图
3D轨道图
轨道高度分析图
轨道倾角分析图
轨道综合分析图
查看轨道综合分析图